KM5R Weather Reports


time (UTC)temp
F
wind
direction
speed
knots
gust
knots
rain 1hr
in
rain 24hr
in
rain mn
in
humidity
%
barometer
mb
20260906225728 92 230 1.7 1.7 0.00 0.00 0.00 51 1013.6
20260906225224 92 202 2.6 2.6 0.00 0.00 0.00 49 1013.9
20260906224719 92 99 0.9 0.9 0.00 0.00 0.00 51 1013.6
20260906224215 92 126 0.9 1.7 0.00 0.00 0.00 49 1013.8
20260906223712 92 251 4.3 5.2 0.00 0.00 0.00 50 1013.5
20260906223207 91 188 2.6 2.6 0.00 0.00 0.00 51 1013.5
20260906222705 92 222 2.6 4.3 0.00 0.00 0.00 50 1013.7
20260906222204 93 225 5.2 6.1 0.00 0.00 0.00 47 1013.7
20260906221703 93 124 0.9 0.9 0.00 0.00 0.00 45 1013.6
20260906221202 93 73 4.3 5.2 0.00 0.00 0.00 45 1013.7
20260906220657 93 88 2.6 4.3 0.00 0.00 0.00 45 1013.9
20260906220153 93 93 5.2 7.0 0.00 0.00 0.00 45 1013.9
20260906215651 93 100 6.1 7.0 0.00 0.00 0.00 44 1013.9
20260906215151 93 86 6.1 8.7 0.00 0.00 0.00 44 1013.9
20260906214649 94 56 0.9 1.7 0.00 0.00 0.00 45 1013.8
20260906214144 94 89 0.9 0.9 0.00 0.00 0.00 44 1013.7
20260906213643 94 75 1.7 1.7 0.00 0.00 0.00 43 1013.9
20260906213138 95 99 3.5 5.2 0.00 0.00 0.00 44 1014.1
20260906212635 95 66 2.6 4.3 0.00 0.00 0.00 43 1014.2
20260906212131 95 187 3.5 4.3 0.00 0.00 0.00 42 1014.1
20260906211631 94 279 1.7 1.7 0.00 0.00 0.00 44 1014.1
20260906211126 94 57 0.0 0.0 0.00 0.00 0.00 44 1014.2
20260906210622 93 82 3.5 4.3 0.00 0.00 0.00 45 1014.2
20260906210116 93 72 6.1 7.8 0.00 0.00 0.00 45 1014.3
20260906205612 95 129 5.2 7.8 0.00 0.00 0.00 44 1014.3
20260906205108 94 232 1.7 1.7 0.00 0.00 0.00 44 1014.3
20260906204607 93 50 0.0 0.9 0.00 0.00 0.00 47 1014.4
20260906204102 93 101 0.9 1.7 0.00 0.00 0.00 46 1014.7
20260906203601 92 103 0.9 0.9 0.00 0.00 0.00 47 1014.7
20260906203057 92 95 5.2 6.1 0.00 0.00 0.00 47 1014.7
20260906202553 92 156 3.5 4.3 0.00 0.00 0.00 47 1014.8
20260906202054 92 117 2.6 4.3 0.00 0.00 0.00 47 1014.8
20260906201554 93 101 3.5 4.3 0.00 0.00 0.00 46 1014.8
20260906201053 93 163 4.3 5.2 0.00 0.00 0.00 46 1014.8
20260906200549 93 212 2.6 2.6 0.00 0.00 0.00 46 1014.8
20260906200045 92 195 3.5 4.3 0.00 0.00 0.00 46 1015.0
20260906195540 93 102 3.5 5.2 0.00 0.00 0.00 46 1014.8
20260906195037 92 197 3.5 4.3 0.00 0.00 0.00 46 1015.1
20260906194532 92 58 0.9 0.9 0.00 0.00 0.00 47 1014.8
20260906194028 92 110 1.7 1.7 0.00 0.00 0.00 45 1015.1
20260906193527 93 87 1.7 1.7 0.00 0.00 0.00 45 1015.0
20260906193023 93 107 0.9 0.9 0.00 0.00 0.00 45 1015.1
20260906192518 93 175 3.5 4.3 0.00 0.00 0.00 45 1015.0
20260906192017 93 161 3.5 4.3 0.00 0.00 0.00 44 1014.9
20260906191512 93 142 7.0 7.8 0.00 0.00 0.00 44 1015.1
20260906191011 93 105 1.7 2.6 0.00 0.00 0.00 45 1015.1
20260906190511 95 88 4.3 5.2 0.00 0.00 0.00 42 1015.3
20260906190006 94 135 4.3 6.1 0.00 0.00 0.00 45 1015.3
20260906185504 94 143 5.2 7.0 0.00 0.00 0.00 44 1015.4
20260906185004 93 65 3.5 7.0 0.00 0.00 0.00 45 1015.5
20260906184459 92 199 2.6 2.6 0.00 0.00 0.00 46 1015.4
20260906183954 92 174 5.2 7.8 0.00 0.00 0.00 46 1015.7
20260906183450 92 152 6.1 7.8 0.00 0.00 0.00 47 1015.8
20260906182946 93 181 4.3 6.1 0.00 0.00 0.00 46 1015.8
20260906182435 94 157 6.1 7.0 0.00 0.00 0.00 45 1016.1
20260906181931 92 125 2.6 2.6 0.00 0.00 0.00 46 1016.0
20260906181427 91 208 1.7 1.7 0.00 0.00 0.00 48 1016.2
20260906180923 92 172 8.7 9.6 0.00 0.00 0.00 49 1016.1
20260906180423 90 105 0.9 0.9 0.00 0.00 0.00 52 1016.3
20260906175921 89 184 3.5 4.3 0.00 0.00 0.00 53 1016.5
20260906175416 89 149 5.2 7.0 0.00 0.00 0.00 54 1016.4
20260906174914 89 136 4.3 6.1 0.00 0.00 0.00 55 1016.4
20260906174409 88 227 1.7 1.7 0.00 0.00 0.00 57 1016.6
20260906173903 89 127 3.5 5.2 0.00 0.00 0.00 56 1016.7
20260906173359 89 133 2.6 4.3 0.00 0.00 0.00 54 1016.8
20260906172858 89 119 2.6 2.6 0.00 0.00 0.00 55 1016.6
20260906172354 89 132 2.6 4.3 0.00 0.00 0.00 54 1016.8
20260906171849 90 47 1.7 1.7 0.00 0.00 0.00 52 1016.7
20260906171344 92 85 7.0 7.8 0.00 0.00 0.00 50 1016.9
20260906170839 92 65 2.6 4.3 0.00 0.00 0.00 49 1016.9
20260906170336 91 103 4.3 7.8 0.00 0.00 0.00 50 1016.9
20260906165832 89 48 3.5 5.2 0.00 0.00 0.00 52 1017.1
20260906165331 90 50 1.7 4.3 0.00 0.00 0.00 53 1017.0
20260906164826 90 44 0.0 0.0 0.00 0.00 0.00 54 1017.0
20260906164325 91 21 2.6 2.6 0.00 0.00 0.00 54 1017.2
20260906163822 90 188 1.7 1.7 0.00 0.00 0.00 55 1017.1
20260906163318 89 176 0.9 0.9 0.00 0.00 0.00 56 1017.2
20260906162814 88 319 2.6 2.6 0.00 0.00 0.00 57 1017.3
20260906162308 87 97 1.7 2.6 0.00 0.00 0.00 58 1017.4
20260906161803 88 53 0.9 0.9 0.00 0.00 0.00 59 1017.4
20260906161303 89 36 2.6 2.6 0.00 0.00 0.00 58 1017.2
20260906160801 87 87 0.0 0.0 0.00 0.00 0.00 59 1017.1
20260906160256 86 44 2.6 2.6 0.00 0.00 0.00 62 1017.4
20260906155753 86 34 2.6 4.3 0.00 0.00 0.00 62 1017.3
20260906155248 85 80 1.7 1.7 0.00 0.00 0.00 62 1017.2
20260906154744 85 36 2.6 2.6 0.00 0.00 0.00 64 1017.3
20260906154239 85 31 2.6 2.6 0.00 0.00 0.00 63 1017.3
20260906153737 85 41 1.7 1.7 0.00 0.00 0.00 64 1017.2
20260906153231 84 145 3.5 4.3 0.00 0.00 0.00 66 1017.1
20260906152726 83 54 1.7 1.7 0.00 0.00 0.00 68 1017.3
20260906152220 83 60 0.0 0.0 0.00 0.00 0.00 70 1017.1
20260906151715 81 42 1.7 2.6 0.00 0.00 0.00 72 1017.1
20260906151211 81 87 0.9 1.7 0.00 0.00 0.00 73 1017.2
20260906150707 80 80 2.6 2.6 0.00 0.00 0.00 74 1017.1
20260906150201 80 58 1.7 1.7 0.00 0.00 0.00 74 1017.2
20260906145700 80 38 2.6 2.6 0.00 0.00 0.00 74 1017.1
20260906145200 80 79 3.5 4.3 0.00 0.00 0.00 75 1017.2
20260906144700 80 58 1.7 1.7 0.00 0.00 0.00 74 1017.2
20260906144155 80 94 0.0 0.9 0.00 0.00 0.00 75 1017.2
20260906143649 79 61 4.3 5.2 0.00 0.00 0.00 75 1017.2
20260906143147 80 68 4.3 4.3 0.00 0.00 0.00 74 1017.1
20260906142646 79 53 0.9 0.9 0.00 0.00 0.00 75 1016.9
20260906142141 79 74 0.9 2.6 0.00 0.00 0.00 75 1017.1
20260906141640 79 75 1.7 1.7 0.00 0.00 0.00 75 1017.2
20260906141135 79 73 0.9 0.9 0.00 0.00 0.00 75 1017.1
20260906140634 79 54 0.0 0.9 0.00 0.00 0.00 75 1016.9
20260906140130 79 82 0.9 1.7 0.00 0.00 0.00 75 1016.9
20260906135626 79 38 0.9 1.7 0.00 0.00 0.00 75 1017.0
20260906135122 80 74 2.6 4.3 0.00 0.00 0.00 74 1016.8
20260906134618 80 66 2.6 2.6 0.00 0.00 0.00 73 1016.7
20260906134113 81 57 1.7 1.7 0.00 0.00 0.00 73 1016.8
20260906133609 82 68 1.7 2.6 0.00 0.00 0.00 71 1016.9
20260906133103 83 51 0.0 0.9 0.00 0.00 0.00 69 1016.7
20260906132558 83 42 0.0 0.9 0.00 0.00 0.00 70 1016.4
20260906132054 81 44 0.0 0.0 0.00 0.00 0.00 73 1016.5
20260906131549 80 44 0.0 0.9 0.00 0.00 0.00 76 1016.5
20260906131044 78 44 0.0 0.0 0.00 0.00 0.00 78 1016.5
20260906130544 77 44 0.0 0.9 0.00 0.00 0.00 80 1016.6
20260906130039 75 42 0.0 0.0 0.00 0.00 0.00 80 1016.5
20260906125536 75 42 0.0 0.0 0.00 0.00 0.00 80 1016.3
20260906125037 75 42 0.0 0.0 0.00 0.00 0.00 80 1016.2
20260906124532 75 36 0.0 0.9 0.00 0.00 0.00 80 1016.3
20260906124027 75 18 0.0 0.0 0.00 0.00 0.00 80 1016.4
20260906123526 75 16 0.9 0.9 0.00 0.00 0.00 80 1016.2
20260906123021 74 17 0.0 0.0 0.00 0.00 0.00 80 1016.0
20260906122515 74 17 0.0 0.0 0.00 0.00 0.00 81 1015.8
20260906122012 74 17 0.0 0.0 0.00 0.00 0.00 81 1016.0
20260906121507 74 17 0.0 0.0 0.00 0.00 0.00 81 1016.2
20260906121004 74 17 0.0 0.0 0.00 0.00 0.00 80 1016.1
20260906120504 74 14 0.0 0.0 0.00 0.00 0.00 80 1015.9
20260906120000 74 12 0.9 0.9 0.00 0.00 0.00 80 1016.0
20260906115455 74 12 0.0 0.9 0.00 0.00 0.00 81 1015.8
20260906114950 74 17 0.0 0.9 0.00 0.00 0.00 81 1015.6
20260906114445 74 16 0.9 0.9 0.00 0.00 0.00 80 1015.5
20260906113941 74 14 0.0 0.0 0.00 0.00 0.00 80 1015.8
20260906113440 74 10 0.0 0.0 0.00 0.00 0.00 80 1015.6
20260906112935 75 7 0.9 0.9 0.00 0.00 0.00 80 1015.6
20260906112430 74 7 0.9 0.9 0.00 0.00 0.00 80 1015.4
20260906111926 74 5 0.0 0.0 0.00 0.00 0.00 80 1015.4
20260906111426 74 5 0.9 0.9 0.00 0.00 0.00 80 1015.5
20260906110920 74 7 0.9 0.9 0.00 0.00 0.00 79 1015.3
20260906110416 75 14 0.9 0.9 0.00 0.00 0.00 79 1015.0
20260906105915 75 27 0.0 0.9 0.00 0.00 0.00 79 1015.0
20260906105411 76 29 0.9 0.9 0.00 0.00 0.00 79 1015.0
20260906104907 75 36 0.9 0.9 0.00 0.00 0.00 79 1014.8
20260906104405 75 36 0.0 0.0 0.00 0.00 0.00 79 1015.0
20260906103904 75 36 0.0 0.0 0.00 0.00 0.00 79 1015.0
20260906103402 75 35 0.0 0.0 0.00 0.00 0.00 79 1014.7
20260906102858 75 35 0.9 0.9 0.00 0.00 0.00 78 1014.8
20260906102357 76 48 0.0 0.9 0.00 0.00 0.00 78 1014.8
20260906101852 76 94 0.0 0.0 0.00 0.00 0.00 78 1014.7
20260906101347 76 94 0.0 0.0 0.00 0.00 0.00 78 1014.8
20260906100843 76 94 0.0 0.9 0.00 0.00 0.00 78 1014.9
20260906100341 76 102 0.9 0.9 0.00 0.00 0.00 78 1014.7
20260906095832 76 98 0.0 0.9 0.00 0.00 0.00 78 1014.8
20260906095327 76 80 0.0 0.0 0.00 0.00 0.00 78 1014.9
20260906094826 76 80 0.0 0.0 0.00 0.00 0.00 78 1014.9
20260906094321 76 80 0.0 0.0 0.00 0.00 0.00 78 1014.8
20260906093817 76 80 0.0 0.9 0.00 0.00 0.00 78 1014.8
20260906093313 76 80 0.0 0.0 0.00 0.00 0.00 78 1014.6
20260906092808 76 80 0.0 0.0 0.00 0.00 0.00 78 1014.9
20260906092301 76 80 0.0 0.0 0.00 0.00 0.00 78 1014.9
20260906091758 76 80 0.0 0.0 0.00 0.00 0.00 77 1014.8
20260906091254 76 80 0.0 0.0 0.00 0.00 0.00 77 1014.9
20260906090750 77 80 0.0 0.0 0.00 0.00 0.00 77 1014.8
20260906090249 77 80 0.0 0.9 0.00 0.00 0.00 77 1015.0
20260906085748 77 80 0.9 0.9 0.00 0.00 0.00 77 1014.5
20260906085247 76 80 0.0 0.0 0.00 0.00 0.00 77 1014.4
20260906084742 76 80 0.0 0.0 0.00 0.00 0.00 77 1014.6
20260906084242 76 80 0.0 0.0 0.00 0.00 0.00 77 1014.5
20260906083737 77 80 0.0 0.0 0.00 0.00 0.00 77 1014.6
20260906083232 77 80 0.0 0.0 0.00 0.00 0.00 76 1014.7
20260906082727 77 80 0.0 0.0 0.00 0.00 0.00 76 1014.7
20260906082222 77 80 0.0 0.9 0.00 0.00 0.00 76 1014.8
20260906081719 77 80 0.0 0.0 0.00 0.00 0.00 75 1014.6
20260906081213 78 80 0.0 0.0 0.00 0.00 0.00 75 1015.0
20260906080710 78 80 0.0 0.0 0.00 0.00 0.00 75 1015.1
20260906080206 77 80 0.0 0.9 0.00 0.00 0.00 76 1015.1
20260906075706 77 80 0.0 0.0 0.00 0.00 0.00 75 1014.9
20260906075201 77 80 0.0 0.0 0.00 0.00 0.00 75 1015.0
20260906074656 77 80 0.0 0.0 0.00 0.00 0.00 75 1015.3
20260906074155 78 80 0.0 0.0 0.00 0.00 0.00 74 1015.3
20260906073650 78 80 0.0 0.0 0.00 0.00 0.00 74 1015.1
20260906073145 78 80 0.0 0.0 0.00 0.00 0.00 74 1015.3
20260906072640 78 80 0.0 0.0 0.00 0.00 0.00 74 1015.3
20260906072136 79 80 0.0 0.0 0.00 0.00 0.00 73 1015.5
20260906071632 79 82 0.9 0.9 0.00 0.00 0.00 72 1015.5
20260906071132 79 83 0.9 1.7 0.00 0.00 0.00 72 1015.6
20260906070629 79 80 0.9 0.9 0.00 0.00 0.00 72 1015.5
20260906070124 80 78 0.0 0.9 0.00 0.00 0.00 71 1015.4
20260906065624 80 88 0.9 0.9 0.00 0.00 0.00 71 1015.5
20260906065119 80 91 0.9 0.9 0.00 0.00 0.00 70 1015.6
20260906064614 80 90 0.9 0.9 0.00 0.00 0.00 70 1015.6
20260906064109 80 90 0.9 0.9 0.00 0.00 0.00 71 1015.7
20260906063605 80 67 0.0 0.9 0.00 0.00 0.00 71 1015.7
20260906063101 80 64 0.9 0.9 0.00 0.00 0.00 71 1015.8
20260906062556 80 78 0.9 0.9 0.00 0.00 0.00 70 1015.6
20260906062055 80 106 0.9 1.7 0.00 0.00 0.00 70 1015.6
20260906061552 80 141 1.7 1.7 0.00 0.00 0.00 69 1015.7
20260906061050 81 120 0.9 0.9 0.00 0.00 0.00 69 1015.8
20260906060547 81 83 0.9 0.9 0.00 0.00 0.00 69 1015.7
20260906060044 81 97 1.7 1.7 0.00 0.00 0.00 69 1015.8
20260906055540 81 97 0.9 1.7 0.00 0.00 0.00 69 1016.0
20260906055035 81 69 0.9 1.7 0.00 0.00 0.00 68 1015.9
20260906054535 81 89 0.9 0.9 0.00 0.00 0.00 68 1016.0
20260906054030 81 99 0.9 1.7 0.00 0.00 0.00 68 1015.7
20260906053527 81 125 1.7 1.7 0.00 0.00 0.00 67 1015.6
20260906053022 81 154 4.3 6.1 0.00 0.00 0.00 67 1015.8
20260906052518 82 74 2.6 2.6 0.00 0.00 0.00 67 1015.9
20260906052015 82 133 3.5 4.3 0.00 0.00 0.00 67 1015.7
20260906051510 82 85 3.5 4.3 0.00 0.00 0.00 66 1015.9
20260906051005 82 85 0.9 1.7 0.00 0.00 0.00 66 1015.6
20260906050500 82 94 3.5 4.3 0.00 0.00 0.00 66 1015.9
20260906045959 82 89 1.7 2.6 0.00 0.00 0.00 66 1016.1
20260906045458 82 100 4.3 5.2 0.00 0.00 0.00 65 1015.7
20260906044954 83 102 4.3 5.2 0.00 0.00 0.00 64 1015.8
20260906044449 83 109 3.5 5.2 0.00 0.00 0.00 64 1015.8
20260906043945 83 66 1.7 2.6 0.00 0.00 0.00 63 1016.1
20260906043441 83 40 2.6 2.6 0.00 0.00 0.00 63 1016.1
20260906042936 83 75 1.7 1.7 0.00 0.00 0.00 62 1015.8
20260906042435 83 75 2.6 4.3 0.00 0.00 0.00 62 1015.9
20260906041930 83 115 2.6 2.6 0.00 0.00 0.00 62 1015.8
20260906041426 83 98 4.3 6.1 0.00 0.00 0.00 62 1015.8
20260906040926 84 91 2.6 2.6 0.00 0.00 0.00 62 1015.8
20260906040421 84 91 2.6 2.6 0.00 0.00 0.00 62 1016.0
20260906035916 84 78 1.7 2.6 0.00 0.00 0.00 62 1015.7
20260906035413 84 86 2.6 2.6 0.00 0.00 0.00 62 1015.9
20260906034908 84 81 2.6 2.6 0.00 0.00 0.00 61 1015.7
20260906034408 84 81 1.7 5.2 0.00 0.00 0.00 61 1015.5
20260906033903 84 66 3.5 5.2 0.00 0.00 0.00 61 1015.6
20260906033403 84 90 3.5 4.3 0.00 0.00 0.00 61 1015.5
20260906032859 85 75 3.5 5.2 0.00 0.00 0.00 61 1015.4
20260906032355 85 51 2.6 2.6 0.00 0.00 0.00 61 1015.5
20260906031850 85 61 3.5 6.1 0.00 0.00 0.00 61 1015.5
20260906031345 85 67 3.5 4.3 0.00 0.00 0.00 60 1015.3
20260906030845 85 71 3.5 4.3 0.00 0.00 0.00 60 1015.3
20260906030340 86 86 4.3 6.1 0.00 0.00 0.00 60 1015.1
20260906025835 86 67 0.9 2.6 0.00 0.00 0.00 59 1015.1
20260906025328 86 58 4.3 5.2 0.00 0.00 0.00 59 1015.1
20260906024827 86 58 4.3 6.1 0.00 0.00 0.00 59 1014.9
20260906024321 86 57 4.3 6.1 0.00 0.00 0.00 58 1015.1
20260906023817 87 79 4.3 5.2 0.00 0.00 0.00 58 1014.9
20260906023313 87 57 2.6 4.3 0.00 0.00 0.00 58 1014.9
20260906022808 87 93 5.2 7.0 0.00 0.00 0.00 57 1014.7
20260906022306 87 37 4.3 5.2 0.00 0.00 0.00 57 1014.5
20260906021759 87 67 4.3 7.0 0.00 0.00 0.00 56 1014.5
20260906021258 88 89 4.3 7.0 0.00 0.00 0.00 56 1014.4
20260906020752 88 71 9.6 12.2 0.00 0.00 0.00 55 1014.3
20260906020246 88 80 9.6 9.6 0.00 0.00 0.00 55 1014.3
20260906015741 88 70 5.2 7.0 0.00 0.00 0.00 54 1014.2
20260906015239 88 56 4.3 6.1 0.00 0.00 0.00 53 1013.8
20260906014734 89 73 5.2 7.0 0.00 0.00 0.00 52 1014.3
20260906014225 89 98 3.5 5.2 0.00 0.00 0.00 50 1013.9
20260906013720 89 74 2.6 4.3 0.00 0.00 0.00 48 1013.8
20260906013220 89 61 5.2 7.0 0.00 0.00 0.00 47 1013.9
20260906012716 89 71 0.9 1.7 0.00 0.00 0.00 47 1013.8
20260906012215 90 70 0.0 0.9 0.00 0.00 0.00 45 1013.6
20260906011711 91 81 0.9 1.7 0.00 0.00 0.00 44 1013.6
20260906011206 91 80 0.9 1.7 0.00 0.00 0.00 44 1013.5
20260906010701 91 77 1.7 1.7 0.00 0.00 0.00 43 1013.3
20260906010158 92 72 1.7 2.6 0.00 0.00 0.00 42 1013.3
20260906005657 92 82 4.3 5.2 0.00 0.00 0.00 42 1013.4
20260906005156 92 72 2.6 2.6 0.00 0.00 0.00 42 1013.4
20260906004655 93 85 2.6 5.2 0.00 0.00 0.00 41 1013.5
20260906004151 93 85 4.3 6.1 0.00 0.00 0.00 41 1013.5
20260906003646 93 66 3.5 4.3 0.00 0.00 0.00 40 1013.5
20260906003142 93 71 7.0 8.7 0.00 0.00 0.00 40 1013.4
20260906002642 94 65 6.1 8.7 0.00 0.00 0.00 40 1013.4
20260906002136 94 71 7.8 11.3 0.00 0.00 0.00 40 1013.3
20260906001632 94 51 4.3 6.1 0.00 0.00 0.00 40 1013.5
20260906001131 94 58 3.5 6.1 0.00 0.00 0.00 40 1013.3
20260906000627 94 61 3.5 5.2 0.00 0.00 0.00 40 1013.4
20260906000123 94 73 5.2 6.1 0.00 0.00 0.00 40 1013.2
20260905235621 94 65 6.1 7.0 0.00 0.00 0.00 40 1013.2
20260905235117 95 73 8.7 9.6 0.00 0.00 0.00 40 1013.3
20260905234613 95 67 3.5 5.2 0.00 0.00 0.00 41 1013.2
20260905234108 94 72 7.0 8.7 0.00 0.00 0.00 41 1013.2
20260905233608 95 54 6.1 7.0 0.00 0.00 0.00 40 1013.2
20260905233102 95 67 6.1 9.6 0.00 0.00 0.00 40 1013.0
20260905232557 95 20 1.7 2.6 0.00 0.00 0.00 40 1013.2
20260905232053 95 80 9.6 12.2 0.00 0.00 0.00 39 1013.3
20260905231548 95 54 2.6 5.2 0.00 0.00 0.00 39 1013.1
20260905231044 95 58 5.2 7.8 0.00 0.00 0.00 39 1013.1
20260905230544 95 71 5.2 7.0 0.00 0.00 0.00 38 1013.1
20260905230042 95 74 6.1 7.8 0.00 0.00 0.00 39 1013.1